User: anonymous   Login
Location: Unspecified
(0.0000°N, 0.0000°E)
Time: 22:52:39
(UTC+00:00)
Language:

CUBESAT XI-V - Orbit

View from above orbital plane
View from above orbital plane
View from above satellite
View from above satellite

Ground track
Ground track

The orbit data is extracted from the following two-line orbital elements,

1 28895U 05043F   18343.91001989 +.00000126 +00000-0 +33031-4 0  9993
2 28895 097.9318 128.5166 0015841 231.3359 128.6427 14.63609928699344
Epoch (UTC): 09 December 2018 21:50:25
Eccentricity: 0.0015841
inclination: 97.9318°
perigee height: 670 km
apogee height: 693 km
right ascension of ascending node: 128.5166°
argument of perigee: 231.3359°
revolutions per day: 14.63609928
mean anomaly at epoch: 128.6427°
orbit number at epoch: 69934

The dashed part of the orbit path shows where the satellite is in the earth's shadow,  

DLR